SV2JU-2 Weather Reports


time (UTC)temp
F
wind
direction
speed
knots
gust
knots
rain 1hr
in
rain 24hr
in
rain mn
in
humidity
%
barometer
mb
20260506152704 75 157 3.5 7.0 0.00 0.00 0.00 10 1014.0
20260506151433 75 159 4.3 6.1 0.00 0.00 0.00 10 1014.0
20260506150204 75 166 5.2 9.6 0.00 0.00 0.00 11 1014.0
20260506144933 75 161 5.2 10.4 0.00 0.00 0.00 11 1014.0
20260506143704 75 155 4.3 8.7 0.00 0.00 0.00 11 1014.0
20260506142433 76 171 4.3 8.7 0.00 0.00 0.00 11 1014.0
20260506141204 76 159 4.3 8.7 0.00 0.00 0.00 11 1014.0
20260506135935 76 151 3.5 7.0 0.00 0.00 0.00 11 1014.0
20260506134704 76 164 5.2 7.0 0.00 0.00 0.00 13 1014.0
20260506134436 76 165 3.5 8.7 0.00 0.00 0.00 13 1014.0
20260506133206 76 153 3.5 7.0 0.00 0.00 0.00 14 1014.0
20260506131936 76 161 6.1 10.4 0.00 0.00 0.00 13 1015.0
20260506130706 76 170 5.2 7.0 0.00 0.00 0.00 14 1015.0
20260506125435 76 159 3.5 7.0 0.00 0.00 0.00 14 1015.0
20260506124206 76 164 5.2 8.7 0.00 0.00 0.00 14 1015.0
20260506122935 76 169 4.3 7.8 0.00 0.00 0.00 16 1015.0
20260506120435 75 236 3.5 7.0 0.00 0.00 0.00 21 1015.0
20260506113935 74 183 2.6 5.2 0.00 0.00 0.00 21 1015.0
20260506112706 74 250 2.6 5.2 0.00 0.00 0.00 20 1015.0
20260506111435 74 247 3.5 6.1 0.00 0.00 0.00 20 1016.0
20260506110206 74 236 3.5 7.0 0.00 0.00 0.00 20 1016.0
20260506104935 74 251 3.5 6.1 0.00 0.00 0.00 18 1016.0
20260506103706 74 250 3.5 7.0 0.00 0.00 0.00 18 1016.0
20260506102435 74 229 3.5 5.2 0.00 0.00 0.00 19 1016.0
20260506101208 74 239 3.5 5.2 0.00 0.00 0.00 18 1016.0
20260506095935 74 199 2.6 6.1 0.00 0.00 0.00 19 1016.0
20260506094706 74 183 3.5 5.2 0.00 0.00 0.00 19 1016.0
20260506092206 73 165 1.7 5.2 0.00 0.00 0.00 18 1016.0
20260506090935 73 172 2.6 5.2 0.00 0.00 0.00 18 1016.0
20260506085705 73 227 1.7 4.3 0.00 0.00 0.00 18 1016.0
20260506084435 73 195 2.6 4.3 0.00 0.00 0.00 18 1016.0
20260506083205 72 240 2.6 5.2 0.00 0.00 0.00 20 1016.0
20260506081935 73 231 2.6 5.2 0.00 0.00 0.00 21 1016.0
20260506080705 73 190 1.7 4.3 0.00 0.00 0.00 21 1016.0
20260506044705 66 0 0.0 0.0 0.00 0.00 0.00 29 1015.0
20260506043434 65 5 0.0 1.7 0.00 0.00 0.00 30 1015.0
20260506042204 63 0 0.0 0.0 0.00 0.00 0.00 31 1015.0
20260506040934 62 0 0.0 0.0 0.00 0.00 0.00 32 1015.0
20260506035704 61 0 0.0 0.0 0.00 0.00 0.00 32 1015.0
20260506034433 61 0 0.0 0.0 0.00 0.00 0.00 32 1015.0
20260506033204 61 358 0.0 1.7 0.00 0.00 0.00 32 1015.0
20260506031933 61 36 0.0 1.7 0.00 0.00 0.00 31 1015.0
20260506030704 61 11 0.0 2.6 0.00 0.00 0.00 31 1015.0
20260506025433 61 0 0.0 0.0 0.00 0.00 0.00 31 1015.0
20260506024204 61 0 0.0 0.0 0.00 0.00 0.00 31 1015.0
20260506022933 61 0 0.0 0.0 0.00 0.00 0.00 31 1015.0
20260506021704 61 0 0.0 0.0 0.00 0.00 0.00 31 1015.0
20260506020433 61 0 0.0 0.0 0.00 0.00 0.00 32 1015.0
20260506015204 62 0 0.0 0.0 0.00 0.00 0.00 31 1015.0
20260506013933 62 0 0.0 0.0 0.00 0.00 0.00 31 1015.0
20260506011433 62 0 0.0 0.0 0.00 0.00 0.00 29 1015.0
20260506010204 63 0 0.0 0.0 0.00 0.00 0.00 25 1015.0
20260506004933 63 216 0.9 2.6 0.00 0.00 0.00 20 1015.0
20260506003703 64 0 0.0 0.0 0.00 0.00 0.00 17 1015.0
20260506002433 64 0 0.0 0.0 0.00 0.00 0.00 16 1015.0
20260505235932 64 0 0.0 0.0 0.00 0.00 0.00 14 1015.0
20260505234703 64 0 0.0 0.0 0.00 0.00 0.00 13 1015.0
20260505233432 65 0 0.0 0.0 0.00 0.00 0.00 12 1015.0
20260505232203 65 0 0.0 0.0 0.00 0.00 0.00 12 1015.0
20260505230932 65 0 0.0 0.0 0.00 0.00 0.00 13 1015.0
20260505225703 65 0 0.0 0.0 0.00 0.00 0.00 13 1015.0
20260505224432 65 0 0.0 0.0 0.00 0.00 0.00 13 1015.0
20260505223203 66 0 0.0 0.0 0.00 0.00 0.00 13 1015.0
20260505221932 66 0 0.0 0.0 0.00 0.00 0.00 12 1015.0
20260505220703 66 0 0.0 0.0 0.00 0.00 0.00 11 1015.0
20260505215432 66 0 0.0 0.0 0.00 0.00 0.00 12 1015.0
20260505214203 66 13 0.9 2.6 0.00 0.00 0.00 12 1015.0
20260505212932 67 13 0.0 1.7 0.00 0.00 0.00 10 1015.0
20260505211703 67 9 1.7 2.6 0.00 0.00 0.00 10 1014.0
20260505210432 67 0 0.0 0.0 0.00 0.00 0.00 9 1014.0
20260505205203 68 0 0.0 0.0 0.00 0.00 0.00 8 1014.0
20260505203932 68 0 0.0 0.0 0.00 0.00 0.00 6 1014.0
20260505202705 68 0 0.0 0.0 0.00 0.00 0.00 6 1014.0
20260505174431 71 0 0.0 0.0 0.00 0.00 0.00 7 1013.0
20260505173202 71 0 0.0 0.0 0.00 0.00 0.00 8 1013.0
20260505171931 72 0 0.0 0.0 0.00 0.00 0.00 8 1013.0
20260505165431 73 0 0.0 0.0 0.00 0.00 0.00 7 1013.0
20260505162931 73 136 0.0 3.5 0.00 0.00 0.00 6 1013.0
20260505161702 74 128 0.0 3.5 0.00 0.00 0.00 6 1013.0
20260505160431 74 159 1.7 5.2 0.00 0.00 0.00 6 1013.0